Location: Antin
(43.3330°N, 0.2804°E)
Time: 22:57:51
(UTC+00:00)

Cosmos 1892 Rocket - Pass Details

Date: 16 October 2021
Orbit: 605 x 634 km, 82.5° (Epoch: 04 December)

Event Time Altitude Azimuth Distance (km) Brightness Sun altitude
Rises 18:52:59 0° 348° (NNW) 2,938 7.3 -18.7°
Reaches altitude 10° 18:55:15 10° 344° (NNW) 2,022 6.4 -19.2°
Maximum altitude 18:59:40 60° 266° (W) 722 4.1 -20.0°
Drops below altitude 10° 19:04:01 10° 186° (S) 1,992 6.1 -20.7°
Sets 19:06:15 0° 183° (S) 2,889 7.0 -21.1°
